Weather History for Seattle Boeing, WA

Change the Weather History Date:

Monday, January 27, 2014

  Actual Average Record
Temperature  
Mean Temperature 40 °F -  
Max Temperature 48 °F 45 °F 58 °F (1952)
Min Temperature 36 °F 34 °F 11 °F (1957)
Degree Days  
Heating Degree Days 25    
Moisture  
Dew Point 36 °F    
Average Humidity 86    
Maximum Humidity 93    
Minimum Humidity 58    
Precipitation  
Precipitation 0.00 in - - ()
Sea Level Pressure  
Sea Level Pressure 30.18 in    
Wind  
Wind Speed 2 mph (ESE)    
Max Wind Speed 7 mph    
Max Gust Speed -    
Visibility 3 miles    
Events Fog    
Averages and records for this station are not official NWS values.
T = Trace of Precipitation, MM = Missing Value Source: NWS Daily Summary

Daily Weather History Graph

Daily Weather History Graph

Search for Another Location

Airport:

Trip Planner

Search our weather history database for the weather conditions in past years. The results will help you decide how hot, cold, wet, or windy it might be!

Date:

Astronomy

Jan. 27, 2014 Rise Set
Actual Time 7:41 AM PST 5:03 PM PST
Civil Twilight 7:08 AM PST 5:36 PM PST
Nautical Twilight 6:30 AM PST 6:13 PM PST
Astronomical Twilight 5:54 AM PST 6:50 PM PST
Moon 4:31 AM PST (1/27) 1:51 PM PST (1/27)
Length of Visible Light 10h 28m
Length of Day
9h 21m
Waning Crescent, 14% of the Moon is Illuminated
Jan 27
Waning Crescent
Jan 30
New
Feb 6
First Quarter
Feb 14
Full
Feb 22
Last Quarter

Hourly Weather History & Observations

Time (PST) Temp. Windchill Dew Point Humidity Pressure Visibility Wind Dir Wind Speed Gust Speed Precip Events Conditions
12:05 AM 39.2 °F 37.0 °F 37.4 °F 93% 30.14 in 1.8 mi NNW 3.5 mph - N/A   Overcast
12:12 AM 39.2 °F - 37.4 °F 93% 30.14 in 2.5 mi Calm Calm - N/A   Overcast
12:19 AM 39.2 °F - 37.4 °F 93% 30.14 in 0.8 mi Calm Calm - N/A   Overcast
12:53 AM 39.9 °F - 37.0 °F 89% 30.14 in 1.0 mi Calm Calm - N/A   Overcast
1:53 AM 39.0 °F - 37.0 °F 93% 30.14 in 0.8 mi Calm Calm - N/A   Mist
2:02 AM 39.2 °F - 37.4 °F 93% 30.14 in 1.0 mi Calm Calm - N/A   Mist
2:53 AM 37.9 °F - 35.1 °F 89% 30.15 in 0.8 mi Calm Calm - N/A   Mist
3:53 AM 37.0 °F - 35.1 °F 93% 30.15 in 0.5 mi Calm Calm - N/A Fog Fog
4:53 AM 37.0 °F 34.5 °F 35.1 °F 93% 30.16 in 0.2 mi SE 3.5 mph - N/A Fog Fog
5:53 AM 37.0 °F - 35.1 °F 93% 30.17 in 0.8 mi Calm Calm - N/A   Mist
6:53 AM 36.0 °F 33.3 °F 34.0 °F 93% 30.17 in 0.8 mi SSE 3.5 mph - N/A   Mist
7:53 AM 36.0 °F 33.3 °F 34.0 °F 93% 30.19 in 0.8 mi South 3.5 mph - N/A   Mist
8:53 AM 37.0 °F - 35.1 °F 93% 30.19 in 0.8 mi Calm Calm - N/A   Mist
9:08 AM 37.4 °F - 35.6 °F 93% 30.19 in 1.2 mi Calm Calm - N/A   Overcast
9:15 AM 37.4 °F - 35.6 °F 93% 30.19 in 1.8 mi Calm Calm - N/A   Overcast
9:53 AM 37.9 °F - 35.1 °F 89% 30.20 in 1.2 mi Calm Calm - N/A   Overcast
10:53 AM 39.0 °F - 37.0 °F 93% 30.22 in 1.5 mi Calm Calm - N/A   Overcast
11:50 AM 41.0 °F - 37.4 °F 87% 30.23 in 1.5 mi Calm Calm - N/A   Overcast
11:53 AM 41.0 °F 39.0 °F 37.0 °F 86% 30.22 in 1.5 mi East 3.5 mph - N/A   Overcast
12:53 PM 42.1 °F 37.7 °F 36.0 °F 79% 30.21 in 4.0 mi NE 6.9 mph - N/A   Overcast
1:00 PM 41.0 °F 38.0 °F 35.6 °F 81% 30.20 in 5.0 mi ENE 4.6 mph - N/A   Haze
1:25 PM 42.8 °F - 37.4 °F 81% 30.20 in 6.0 mi Calm Calm - N/A   Haze
1:53 PM 43.0 °F - 37.0 °F 80% 30.19 in 5.0 mi Calm Calm - N/A   Haze
2:53 PM 44.1 °F 42.5 °F 37.0 °F 76% 30.19 in 5.0 mi NNW 3.5 mph - N/A   Haze
3:53 PM 44.1 °F - 37.0 °F 76% 30.20 in 6.0 mi Calm Calm - N/A   Overcast
4:53 PM 42.1 °F 38.4 °F 37.9 °F 85% 30.19 in 6.0 mi SE 5.8 mph - N/A   Overcast
5:53 PM 42.1 °F 39.2 °F 37.9 °F 85% 30.19 in 6.0 mi SE 4.6 mph - N/A   Overcast
6:53 PM 43.0 °F 40.3 °F 37.9 °F 82% 30.19 in 6.0 mi Variable 4.6 mph - N/A   Overcast
7:53 PM 43.0 °F 39.5 °F 37.9 °F 82% 30.20 in 6.0 mi SE 5.8 mph - N/A   Overcast
8:53 PM 42.1 °F 37.7 °F 37.9 °F 85% 30.21 in 6.0 mi SE 6.9 mph - N/A   Clear
9:53 PM 43.0 °F 39.5 °F 37.9 °F 82% 30.21 in 7.0 mi SSE 5.8 mph - N/A   Clear
10:53 PM 44.1 °F - 37.0 °F 76% 30.21 in 10.0 mi Calm Calm - N/A   Overcast
11:53 PM 48.0 °F - 34.0 °F 58% 30.22 in 10.0 mi ESE 3.5 mph - N/A   Overcast